Year,Month,Day,Hour,Minute,Value (Times are PST for temperature in C)
2008,08,04,00,00,17.20
2008,08,04,00,01,17.20
2008,08,04,00,02,17.20
2008,08,04,00,03,17.20
2008,08,04,00,04,17.10
2008,08,04,00,05,17.10
2008,08,04,00,06,17.10
2008,08,04,00,07,17.00
2008,08,04,00,08,17.00
2008,08,04,00,09,16.90
2008,08,04,00,10,16.80
2008,08,04,00,11,16.70
2008,08,04,00,12,16.70
2008,08,04,00,13,16.50
2008,08,04,00,14,16.40
2008,08,04,00,15,16.30
2008,08,04,00,16,16.10
2008,08,04,00,17,16.10
2008,08,04,00,18,15.90
2008,08,04,00,19,15.80
2008,08,04,00,20,15.80
2008,08,04,00,21,15.70
2008,08,04,00,22,15.60
2008,08,04,00,23,15.60
2008,08,04,00,24,15.50
2008,08,04,00,25,15.50
2008,08,04,00,26,15.40
2008,08,04,00,27,15.30
2008,08,04,00,28,15.30
2008,08,04,00,29,15.20
2008,08,04,00,30,15.10
2008,08,04,00,31,15.00
2008,08,04,00,32,15.00
2008,08,04,00,33,14.90
2008,08,04,00,34,14.80
2008,08,04,00,35,14.70
2008,08,04,00,36,14.70
2008,08,04,00,37,14.60
2008,08,04,00,38,14.60
2008,08,04,00,39,14.50
2008,08,04,00,40,14.50
2008,08,04,00,41,14.50
2008,08,04,00,42,14.40
2008,08,04,00,43,14.40
2008,08,04,00,44,14.40
2008,08,04,00,45,14.50
2008,08,04,00,46,14.60
2008,08,04,00,47,14.80
2008,08,04,00,48,14.90
2008,08,04,00,49,15.10
2008,08,04,00,50,15.30
2008,08,04,00,51,15.50
2008,08,04,00,52,15.60
2008,08,04,00,53,15.80
2008,08,04,00,54,15.90
2008,08,04,00,55,16.00
2008,08,04,00,56,16.10
2008,08,04,00,57,16.20
2008,08,04,00,58,16.30
2008,08,04,00,59,16.40
2008,08,04,01,00,16.40
2008,08,04,01,01,16.40
2008,08,04,01,02,16.50
2008,08,04,01,03,16.60
2008,08,04,01,04,16.50
2008,08,04,01,05,16.40
2008,08,04,01,06,16.40
2008,08,04,01,07,16.40
2008,08,04,01,08,16.40
2008,08,04,01,09,16.40
2008,08,04,01,10,16.40
2008,08,04,01,11,16.40
2008,08,04,01,12,16.40
2008,08,04,01,13,16.40
2008,08,04,01,14,16.40
2008,08,04,01,15,16.40
2008,08,04,01,16,16.40
2008,08,04,01,17,16.50
2008,08,04,01,18,16.60
2008,08,04,01,19,16.60
2008,08,04,01,20,16.70
2008,08,04,01,21,16.70
2008,08,04,01,22,16.70
2008,08,04,01,23,16.70
2008,08,04,01,24,16.80
2008,08,04,01,25,16.70
2008,08,04,01,26,16.70
2008,08,04,01,27,16.70
2008,08,04,01,28,16.70
2008,08,04,01,29,16.70
2008,08,04,01,30,16.70
2008,08,04,01,31,16.70
2008,08,04,01,32,16.70
2008,08,04,01,33,16.70
2008,08,04,01,34,16.70
2008,08,04,01,35,16.60
2008,08,04,01,36,16.60
2008,08,04,01,37,16.60
2008,08,04,01,38,16.50
2008,08,04,01,39,16.40
2008,08,04,01,40,16.40
2008,08,04,01,41,16.40
2008,08,04,01,42,16.30
2008,08,04,01,43,16.20
2008,08,04,01,44,16.20
2008,08,04,01,45,16.10
2008,08,04,01,46,16.00
2008,08,04,01,47,15.90
2008,08,04,01,48,15.80
2008,08,04,01,49,15.80
2008,08,04,01,50,15.70
2008,08,04,01,51,15.60
2008,08,04,01,52,15.60
2008,08,04,01,53,15.60
2008,08,04,01,54,15.60
2008,08,04,01,55,15.60
2008,08,04,01,56,15.60
2008,08,04,01,57,15.50
2008,08,04,01,58,15.50
2008,08,04,01,59,15.40
2008,08,04,02,00,15.40
2008,08,04,02,01,15.40
2008,08,04,02,02,15.40
2008,08,04,02,03,15.50
2008,08,04,02,04,15.60
2008,08,04,02,05,15.60
2008,08,04,02,06,15.60
2008,08,04,02,07,15.60
2008,08,04,02,08,15.60
2008,08,04,02,09,15.50
2008,08,04,02,10,15.50
2008,08,04,02,11,15.60
2008,08,04,02,12,15.60
2008,08,04,02,13,15.70
2008,08,04,02,14,15.80
2008,08,04,02,15,15.80
2008,08,04,02,16,15.80
2008,08,04,02,17,15.80
2008,08,04,02,18,15.80
2008,08,04,02,19,15.80
2008,08,04,02,20,15.80
2008,08,04,02,21,15.80
2008,08,04,02,22,15.80
2008,08,04,02,23,15.80
2008,08,04,02,24,15.80
2008,08,04,02,25,15.80
2008,08,04,02,26,15.70
2008,08,04,02,27,15.70
2008,08,04,02,28,15.60
2008,08,04,02,29,15.60
2008,08,04,02,30,15.50
2008,08,04,02,31,15.40
2008,08,04,02,32,15.30
2008,08,04,02,33,15.20
2008,08,04,02,34,15.20
2008,08,04,02,35,15.10
2008,08,04,02,36,15.00
2008,08,04,02,37,14.80
2008,08,04,02,38,14.70
2008,08,04,02,39,14.60
2008,08,04,02,40,14.50
2008,08,04,02,41,14.50
2008,08,04,02,42,14.60
2008,08,04,02,43,14.60
2008,08,04,02,44,14.60
2008,08,04,02,45,14.70
2008,08,04,02,46,14.70
2008,08,04,02,47,14.70
2008,08,04,02,48,14.70
2008,08,04,02,49,14.70
2008,08,04,02,50,14.70
2008,08,04,02,51,14.70
2008,08,04,02,52,14.70
2008,08,04,02,53,14.60
2008,08,04,02,54,14.60
2008,08,04,02,55,14.60
2008,08,04,02,56,14.60
2008,08,04,02,57,14.60
2008,08,04,02,58,14.60
2008,08,04,02,59,14.60
2008,08,04,03,00,14.60
2008,08,04,03,01,14.60
2008,08,04,03,02,14.50
2008,08,04,03,03,14.50
2008,08,04,03,04,14.50
2008,08,04,03,05,14.50
2008,08,04,03,06,14.40
2008,08,04,03,07,14.40
2008,08,04,03,08,14.30
2008,08,04,03,09,14.30
2008,08,04,03,10,14.20
2008,08,04,03,11,14.20
2008,08,04,03,12,14.10
2008,08,04,03,13,14.00
2008,08,04,03,14,14.00
2008,08,04,03,15,13.90
2008,08,04,03,16,13.90
2008,08,04,03,17,13.80
2008,08,04,03,18,13.80
2008,08,04,03,19,13.80
2008,08,04,03,20,13.90
2008,08,04,03,21,14.20
2008,08,04,03,22,14.40
2008,08,04,03,23,14.50
2008,08,04,03,24,14.70
2008,08,04,03,25,14.80
2008,08,04,03,26,15.00
2008,08,04,03,27,15.00
2008,08,04,03,28,15.10
2008,08,04,03,29,15.20
2008,08,04,03,30,15.20
2008,08,04,03,31,15.30
2008,08,04,03,32,15.30
2008,08,04,03,33,15.30
2008,08,04,03,34,15.30
2008,08,04,03,35,15.30
2008,08,04,03,36,15.30
2008,08,04,03,37,15.40
2008,08,04,03,38,15.40
2008,08,04,03,39,15.40
2008,08,04,03,40,15.50
2008,08,04,03,41,15.50
2008,08,04,03,42,15.60
2008,08,04,03,43,15.70
2008,08,04,03,44,15.70
2008,08,04,03,45,15.70
2008,08,04,03,46,15.80
2008,08,04,03,47,15.80
2008,08,04,03,48,15.80
2008,08,04,03,49,15.80
2008,08,04,03,50,15.70
2008,08,04,03,51,15.70
2008,08,04,03,52,15.70
2008,08,04,03,53,15.70
2008,08,04,03,54,15.60
2008,08,04,03,55,15.60
2008,08,04,03,56,15.50
2008,08,04,03,57,15.50
2008,08,04,03,58,15.40
2008,08,04,03,59,15.30
2008,08,04,04,00,15.30
2008,08,04,04,01,15.20
2008,08,04,04,02,15.10
2008,08,04,04,03,15.00
2008,08,04,04,04,14.90
2008,08,04,04,05,14.80
2008,08,04,04,06,14.80
2008,08,04,04,07,14.70
2008,08,04,04,08,14.60
2008,08,04,04,09,14.50
2008,08,04,04,10,14.40
2008,08,04,04,11,14.30
2008,08,04,04,12,14.20
2008,08,04,04,13,14.10
2008,08,04,04,14,14.00
2008,08,04,04,15,13.90
2008,08,04,04,16,13.80
2008,08,04,04,17,13.70
2008,08,04,04,18,13.70
2008,08,04,04,19,13.60
2008,08,04,04,20,13.50
2008,08,04,04,21,13.40
2008,08,04,04,22,13.30
2008,08,04,04,23,13.20
2008,08,04,04,24,13.10
2008,08,04,04,25,13.00
2008,08,04,04,26,12.90
2008,08,04,04,27,12.80
2008,08,04,04,28,12.80
2008,08,04,04,29,12.70
2008,08,04,04,30,12.60
2008,08,04,04,31,12.60
2008,08,04,04,32,12.50
2008,08,04,04,33,12.50
2008,08,04,04,34,12.40
2008,08,04,04,35,12.40
2008,08,04,04,36,12.30
2008,08,04,04,37,12.30
2008,08,04,04,38,12.30
2008,08,04,04,39,12.20
2008,08,04,04,40,12.20
2008,08,04,04,41,12.20
2008,08,04,04,42,12.10
2008,08,04,04,43,12.10
2008,08,04,04,44,12.10
2008,08,04,04,45,12.00
2008,08,04,04,46,12.00
2008,08,04,04,47,12.00
2008,08,04,04,48,12.00
2008,08,04,04,49,12.00
2008,08,04,04,50,12.00
2008,08,04,04,51,12.00
2008,08,04,04,52,12.00
2008,08,04,04,53,12.00
2008,08,04,04,54,12.00
2008,08,04,04,55,12.00
2008,08,04,04,56,12.00
2008,08,04,04,57,11.90
2008,08,04,04,58,11.90
2008,08,04,04,59,11.90
2008,08,04,05,00,11.90
2008,08,04,05,01,12.00
2008,08,04,05,02,12.10
2008,08,04,05,03,12.10
2008,08,04,05,04,12.20
2008,08,04,05,05,12.20
2008,08,04,05,06,12.20
2008,08,04,05,07,12.30
2008,08,04,05,08,12.30
2008,08,04,05,09,12.40
2008,08,04,05,10,12.40
2008,08,04,05,11,12.50
2008,08,04,05,12,12.50
2008,08,04,05,13,12.60
2008,08,04,05,14,12.60
2008,08,04,05,15,12.70
2008,08,04,05,16,12.80
2008,08,04,05,17,12.90
2008,08,04,05,18,13.00
2008,08,04,05,19,13.10
2008,08,04,05,20,13.30
2008,08,04,05,21,13.40
2008,08,04,05,22,13.50
2008,08,04,05,23,13.60
2008,08,04,05,24,13.70
2008,08,04,05,25,13.80
2008,08,04,05,26,13.80
2008,08,04,05,27,13.90
2008,08,04,05,28,13.90
2008,08,04,05,29,13.90
2008,08,04,05,30,13.90
2008,08,04,05,31,13.80
2008,08,04,05,32,13.80
2008,08,04,05,33,13.70
2008,08,04,05,34,13.70
2008,08,04,05,35,13.70
2008,08,04,05,36,13.60
2008,08,04,05,37,13.60
2008,08,04,05,38,13.50
2008,08,04,05,39,13.50
2008,08,04,05,40,13.40
2008,08,04,05,41,13.30
2008,08,04,05,42,13.20
2008,08,04,05,43,13.10
2008,08,04,05,44,13.00
2008,08,04,05,45,13.00
2008,08,04,05,46,13.00
2008,08,04,05,47,13.00
2008,08,04,05,48,13.10
2008,08,04,05,49,13.10
2008,08,04,05,50,13.10
2008,08,04,05,51,13.10
2008,08,04,05,52,13.00
2008,08,04,05,53,13.00
2008,08,04,05,54,13.00
2008,08,04,05,55,12.90
2008,08,04,05,56,12.90
2008,08,04,05,57,12.80
2008,08,04,05,58,12.80
2008,08,04,05,59,12.80
2008,08,04,06,00,12.90
2008,08,04,06,01,12.90
2008,08,04,06,02,12.90
2008,08,04,06,03,12.90
2008,08,04,06,04,12.90
2008,08,04,06,05,13.00
2008,08,04,06,06,13.00
2008,08,04,06,07,13.00
2008,08,04,06,08,13.00
2008,08,04,06,09,13.10
2008,08,04,06,10,13.10
2008,08,04,06,11,13.10
2008,08,04,06,12,13.10
2008,08,04,06,13,13.10
2008,08,04,06,14,13.10
2008,08,04,06,15,13.10
2008,08,04,06,16,13.10
2008,08,04,06,17,13.10
2008,08,04,06,18,13.10
2008,08,04,06,19,13.10
2008,08,04,06,20,13.10
2008,08,04,06,21,13.10
2008,08,04,06,22,13.10
2008,08,04,06,23,13.10
2008,08,04,06,24,13.00
2008,08,04,06,25,13.00
2008,08,04,06,26,13.00
2008,08,04,06,27,13.00
2008,08,04,06,28,13.00
2008,08,04,06,29,13.00
2008,08,04,06,30,13.00
2008,08,04,06,31,13.00
2008,08,04,06,32,13.10
2008,08,04,06,33,13.10
2008,08,04,06,34,13.10
2008,08,04,06,35,13.10
2008,08,04,06,36,13.10
2008,08,04,06,37,13.20
2008,08,04,06,38,13.30
2008,08,04,06,39,13.30
2008,08,04,06,40,13.30
2008,08,04,06,41,13.40
2008,08,04,06,42,13.40
2008,08,04,06,43,13.40
2008,08,04,06,44,13.50
2008,08,04,06,45,13.50
2008,08,04,06,46,13.50
2008,08,04,06,47,13.60
2008,08,04,06,48,13.60
2008,08,04,06,49,13.60
2008,08,04,06,50,13.70
2008,08,04,06,51,13.70
2008,08,04,06,52,13.70
2008,08,04,06,53,13.70
2008,08,04,06,54,13.80
2008,08,04,06,55,13.80
2008,08,04,06,56,13.80
2008,08,04,06,57,13.90
2008,08,04,06,58,13.90
2008,08,04,06,59,13.90
2008,08,04,07,00,14.00
2008,08,04,07,01,14.00
2008,08,04,07,02,14.00
2008,08,04,07,03,14.10
2008,08,04,07,04,14.10
2008,08,04,07,05,14.10
2008,08,04,07,06,14.10
2008,08,04,07,07,14.20
2008,08,04,07,08,14.20
2008,08,04,07,09,14.20
2008,08,04,07,10,14.20
2008,08,04,07,11,14.20
2008,08,04,07,12,14.20
2008,08,04,07,13,14.20
2008,08,04,07,14,14.20
2008,08,04,07,15,14.30
2008,08,04,07,16,14.30
2008,08,04,07,17,14.40
2008,08,04,07,18,14.40
2008,08,04,07,19,14.40
2008,08,04,07,20,14.40
2008,08,04,07,21,14.50
2008,08,04,07,22,14.50
2008,08,04,07,23,14.50
2008,08,04,07,24,14.50
2008,08,04,07,25,14.60
2008,08,04,07,26,14.60
2008,08,04,07,27,14.60
2008,08,04,07,28,14.60
2008,08,04,07,29,14.60
2008,08,04,07,30,14.60
2008,08,04,07,31,14.70
2008,08,04,07,32,14.70
2008,08,04,07,33,14.70
2008,08,04,07,34,14.80
2008,08,04,07,35,14.80
2008,08,04,07,36,14.80
2008,08,04,07,37,14.80
2008,08,04,07,38,14.90
2008,08,04,07,39,14.90
2008,08,04,07,40,14.90
2008,08,04,07,41,15.00
2008,08,04,07,42,15.00
2008,08,04,07,43,15.00
2008,08,04,07,44,15.00
2008,08,04,07,45,15.10
2008,08,04,07,46,15.10
2008,08,04,07,47,15.10
2008,08,04,07,48,15.10
2008,08,04,07,49,15.10
2008,08,04,07,50,15.10
2008,08,04,07,51,15.20
2008,08,04,07,52,15.20
2008,08,04,07,53,15.30
2008,08,04,07,54,15.30
2008,08,04,07,55,15.30
2008,08,04,07,56,15.40
2008,08,04,07,57,15.40
2008,08,04,07,58,15.40
2008,08,04,07,59,15.50
2008,08,04,08,00,15.50
2008,08,04,08,01,15.50
2008,08,04,08,02,15.50
2008,08,04,08,03,15.40
2008,08,04,08,04,15.40
2008,08,04,08,05,15.50
2008,08,04,08,06,15.50
2008,08,04,08,07,15.50
2008,08,04,08,08,15.50
2008,08,04,08,09,15.50
2008,08,04,08,10,15.50
2008,08,04,08,11,15.50
2008,08,04,08,12,15.50
2008,08,04,08,13,15.50
2008,08,04,08,14,15.60
2008,08,04,08,15,15.60
2008,08,04,08,16,15.60
2008,08,04,08,17,15.60
2008,08,04,08,18,15.60
2008,08,04,08,19,15.70
2008,08,04,08,20,15.70
2008,08,04,08,21,15.70
2008,08,04,08,22,15.70
2008,08,04,08,23,15.80
2008,08,04,08,24,15.80
2008,08,04,08,25,15.80
2008,08,04,08,26,15.80
2008,08,04,08,27,15.90
2008,08,04,08,28,15.90
2008,08,04,08,29,16.10
2008,08,04,08,30,16.10
2008,08,04,08,31,16.10
2008,08,04,08,32,16.20
2008,08,04,08,33,16.20
2008,08,04,08,34,16.20
2008,08,04,08,35,16.30
2008,08,04,08,36,16.30
2008,08,04,08,37,16.30
2008,08,04,08,38,16.40
2008,08,04,08,39,16.40
2008,08,04,08,40,16.40
2008,08,04,08,41,16.40
2008,08,04,08,42,16.40
2008,08,04,08,43,16.50
2008,08,04,08,44,16.60
2008,08,04,08,45,16.60
2008,08,04,08,46,16.60
2008,08,04,08,47,16.60
2008,08,04,08,48,16.60
2008,08,04,08,49,16.60
2008,08,04,08,50,16.60
2008,08,04,08,51,16.70
2008,08,04,08,52,16.70
2008,08,04,08,53,16.70
2008,08,04,08,54,16.70
2008,08,04,08,55,16.70
2008,08,04,08,56,16.70
2008,08,04,08,57,16.70
2008,08,04,08,58,16.70
2008,08,04,08,59,16.80
2008,08,04,09,00,16.80
2008,08,04,09,01,16.80
2008,08,04,09,02,16.80
2008,08,04,09,03,16.80
2008,08,04,09,04,16.80
2008,08,04,09,05,16.80
2008,08,04,09,06,16.90
2008,08,04,09,07,16.90
2008,08,04,09,08,16.90
2008,08,04,09,09,16.90
2008,08,04,09,10,16.90
2008,08,04,09,11,17.00
2008,08,04,09,12,17.00
2008,08,04,09,13,17.10
2008,08,04,09,14,17.20
2008,08,04,09,15,17.30
2008,08,04,09,16,17.30
2008,08,04,09,17,17.20
2008,08,04,09,18,17.20
2008,08,04,09,19,17.30
2008,08,04,09,20,17.30
2008,08,04,09,21,17.30
2008,08,04,09,22,17.20
2008,08,04,09,23,17.20
2008,08,04,09,24,17.20
2008,08,04,09,25,17.20
2008,08,04,09,26,17.30
2008,08,04,09,27,17.30
2008,08,04,09,28,17.30
2008,08,04,09,29,17.30
2008,08,04,09,30,17.30
2008,08,04,09,31,17.30
2008,08,04,09,32,17.30
2008,08,04,09,33,17.40
2008,08,04,09,34,17.40
2008,08,04,09,35,17.40
2008,08,04,09,36,17.40
2008,08,04,09,37,17.50
2008,08,04,09,38,17.50
2008,08,04,09,39,17.60
2008,08,04,09,40,17.70
2008,08,04,09,41,17.70
2008,08,04,09,42,17.70
2008,08,04,09,43,17.80
2008,08,04,09,44,17.80
2008,08,04,09,45,17.80
2008,08,04,09,46,17.70
2008,08,04,09,47,17.70
2008,08,04,09,48,17.70
2008,08,04,09,49,17.80
2008,08,04,09,50,17.80
2008,08,04,09,51,17.80
2008,08,04,09,52,17.80
2008,08,04,09,53,17.80
2008,08,04,09,54,17.80
2008,08,04,09,55,17.90
2008,08,04,09,56,17.90
2008,08,04,09,57,17.80
2008,08,04,09,58,17.80
2008,08,04,09,59,17.70
2008,08,04,10,00,17.70
2008,08,04,10,01,17.70
2008,08,04,10,02,17.70
2008,08,04,10,03,17.70
2008,08,04,10,04,17.70
2008,08,04,10,05,17.80
2008,08,04,10,06,17.80
2008,08,04,10,07,17.90
2008,08,04,10,08,17.90
2008,08,04,10,09,17.90
2008,08,04,10,10,18.00
2008,08,04,10,11,18.10
2008,08,04,10,12,18.10
2008,08,04,10,13,18.10
2008,08,04,10,14,18.20
2008,08,04,10,15,18.20
2008,08,04,10,16,18.30
2008,08,04,10,17,18.40
2008,08,04,10,18,18.50
2008,08,04,10,19,18.50
2008,08,04,10,20,18.60
2008,08,04,10,21,18.60
2008,08,04,10,22,18.70
2008,08,04,10,23,18.70
2008,08,04,10,24,18.80
2008,08,04,10,25,18.80
2008,08,04,10,26,18.90
2008,08,04,10,27,18.90
2008,08,04,10,28,18.90
2008,08,04,10,29,18.90
2008,08,04,10,30,18.90
2008,08,04,10,31,18.90
2008,08,04,10,32,18.90
2008,08,04,10,33,18.90
2008,08,04,10,34,18.90
2008,08,04,10,35,18.80
2008,08,04,10,36,18.80
2008,08,04,10,37,18.80
2008,08,04,10,38,18.80
2008,08,04,10,39,18.90
2008,08,04,10,40,18.90
2008,08,04,10,41,18.90
2008,08,04,10,42,18.90
2008,08,04,10,43,18.90
2008,08,04,10,44,19.00
2008,08,04,10,45,19.10
2008,08,04,10,46,19.10
2008,08,04,10,47,19.10
2008,08,04,10,48,19.10
2008,08,04,10,49,19.00
2008,08,04,10,50,18.90
2008,08,04,10,51,19.00
2008,08,04,10,52,19.10
2008,08,04,10,53,19.10
2008,08,04,10,54,19.10
2008,08,04,10,55,19.10
2008,08,04,10,56,19.10
2008,08,04,10,57,19.10
2008,08,04,10,58,19.10
2008,08,04,10,59,19.10
2008,08,04,11,00,19.10
2008,08,04,11,01,19.00
2008,08,04,11,02,19.10
2008,08,04,11,03,19.10
2008,08,04,11,04,19.10
2008,08,04,11,05,19.10
2008,08,04,11,06,19.10
2008,08,04,11,07,19.20
2008,08,04,11,08,19.30
2008,08,04,11,09,19.30
2008,08,04,11,10,19.30
2008,08,04,11,11,19.30
2008,08,04,11,12,19.40
2008,08,04,11,13,19.50
2008,08,04,11,14,19.50
2008,08,04,11,15,19.60
2008,08,04,11,16,19.60
2008,08,04,11,17,19.70
2008,08,04,11,18,19.70
2008,08,04,11,19,19.80
2008,08,04,11,20,19.90
2008,08,04,11,21,20.00
2008,08,04,11,22,20.10
2008,08,04,11,23,20.20
2008,08,04,11,24,20.30
2008,08,04,11,25,20.30
2008,08,04,11,26,20.20
2008,08,04,11,27,20.20
2008,08,04,11,28,20.20
2008,08,04,11,29,20.20
2008,08,04,11,30,20.10
2008,08,04,11,31,20.10
2008,08,04,11,32,20.00
2008,08,04,11,33,19.90
2008,08,04,11,34,19.90
2008,08,04,11,35,19.90
2008,08,04,11,36,19.90
2008,08,04,11,37,19.90
2008,08,04,11,38,19.90
2008,08,04,11,39,19.90
2008,08,04,11,40,20.00
2008,08,04,11,41,20.10
2008,08,04,11,42,20.20
2008,08,04,11,43,20.20
2008,08,04,11,44,20.30
2008,08,04,11,45,20.30
2008,08,04,11,46,20.30
2008,08,04,11,47,20.40
2008,08,04,11,48,20.40
2008,08,04,11,49,20.40
2008,08,04,11,50,20.40
2008,08,04,11,51,20.30
2008,08,04,11,52,20.30
2008,08,04,11,53,20.20
2008,08,04,11,54,20.20
2008,08,04,11,55,20.20
2008,08,04,11,56,20.20
2008,08,04,11,57,20.20
2008,08,04,11,58,20.30
2008,08,04,11,59,20.30
2008,08,04,12,00,20.30
2008,08,04,12,01,20.20
2008,08,04,12,02,20.20
2008,08,04,12,03,20.30
2008,08,04,12,04,20.40
2008,08,04,12,05,20.50
2008,08,04,12,06,20.50
2008,08,04,12,07,20.60
2008,08,04,12,08,20.70
2008,08,04,12,09,20.70
2008,08,04,12,10,20.70
2008,08,04,12,11,20.70
2008,08,04,12,12,20.70
2008,08,04,12,13,20.70
2008,08,04,12,14,20.70
2008,08,04,12,15,20.70
2008,08,04,12,16,20.70
2008,08,04,12,17,20.70
2008,08,04,12,18,20.70
2008,08,04,12,19,20.80
2008,08,04,12,20,20.90
2008,08,04,12,21,20.90
2008,08,04,12,22,20.90
2008,08,04,12,23,20.90
2008,08,04,12,24,20.90
2008,08,04,12,25,20.90
2008,08,04,12,26,20.90
2008,08,04,12,27,20.70
2008,08,04,12,28,20.70
2008,08,04,12,29,20.60
2008,08,04,12,30,20.50
2008,08,04,12,31,20.50
2008,08,04,12,32,20.60
2008,08,04,12,33,20.70
2008,08,04,12,34,20.80
2008,08,04,12,35,20.90
2008,08,04,12,36,21.00
2008,08,04,12,37,21.00
2008,08,04,12,38,21.00
2008,08,04,12,39,21.00
2008,08,04,12,40,20.90
2008,08,04,12,41,20.80
2008,08,04,12,42,20.90
2008,08,04,12,43,20.90
2008,08,04,12,44,20.90
2008,08,04,12,45,20.90
2008,08,04,12,46,20.90
2008,08,04,12,47,20.90
2008,08,04,12,48,20.90
2008,08,04,12,49,21.00
2008,08,04,12,50,20.90
2008,08,04,12,51,20.90
2008,08,04,12,52,20.90
2008,08,04,12,53,20.90
2008,08,04,12,54,20.90
2008,08,04,12,55,21.00
2008,08,04,12,56,21.00
2008,08,04,12,57,21.00
2008,08,04,12,58,21.00
2008,08,04,12,59,21.00
2008,08,04,13,00,21.00
2008,08,04,13,01,21.00
2008,08,04,13,02,21.10
2008,08,04,13,03,21.10
2008,08,04,13,04,21.20
2008,08,04,13,05,21.20
2008,08,04,13,06,21.20
2008,08,04,13,07,21.30
2008,08,04,13,08,21.30
2008,08,04,13,09,21.50
2008,08,04,13,10,21.60
2008,08,04,13,11,21.70
2008,08,04,13,12,21.80
2008,08,04,13,13,21.70
2008,08,04,13,14,21.70
2008,08,04,13,15,21.70
2008,08,04,13,16,21.70
2008,08,04,13,17,21.70
2008,08,04,13,18,21.60
2008,08,04,13,19,21.50
2008,08,04,13,20,21.30
2008,08,04,13,21,21.30
2008,08,04,13,22,21.20
2008,08,04,13,23,21.20
2008,08,04,13,24,21.20
2008,08,04,13,25,21.20
2008,08,04,13,26,21.30
2008,08,04,13,27,21.40
2008,08,04,13,28,21.50
2008,08,04,13,29,21.60
2008,08,04,13,30,21.60
2008,08,04,13,31,21.60
2008,08,04,13,32,21.60
2008,08,04,13,33,21.60
2008,08,04,13,34,21.70
2008,08,04,13,35,21.70
2008,08,04,13,36,21.60
2008,08,04,13,37,21.70
2008,08,04,13,38,21.70
2008,08,04,13,39,21.70
2008,08,04,13,40,21.80
2008,08,04,13,41,21.90
2008,08,04,13,42,22.00
2008,08,04,13,43,22.20
2008,08,04,13,44,22.30
2008,08,04,13,45,22.30
2008,08,04,13,46,22.40
2008,08,04,13,47,22.50
2008,08,04,13,48,22.60
2008,08,04,13,49,22.70
2008,08,04,13,50,22.80
2008,08,04,13,51,22.90
2008,08,04,13,52,22.90
2008,08,04,13,53,22.90
2008,08,04,13,54,22.90
2008,08,04,13,55,22.90
2008,08,04,13,56,22.90
2008,08,04,13,57,22.80
2008,08,04,13,58,22.80
2008,08,04,13,59,22.80
2008,08,04,14,00,22.70
2008,08,04,14,01,22.70
2008,08,04,14,02,22.70
2008,08,04,14,03,22.80
2008,08,04,14,04,22.90
2008,08,04,14,05,22.90
2008,08,04,14,06,23.00
2008,08,04,14,07,23.10
2008,08,04,14,08,23.30
2008,08,04,14,09,23.30
2008,08,04,14,10,23.30
2008,08,04,14,11,23.20
2008,08,04,14,12,23.20
2008,08,04,14,13,23.10
2008,08,04,14,14,23.00
2008,08,04,14,15,22.90
2008,08,04,14,16,22.90
2008,08,04,14,17,22.80
2008,08,04,14,18,22.70
2008,08,04,14,19,22.60
2008,08,04,14,20,22.60
2008,08,04,14,21,22.60
2008,08,04,14,22,22.60
2008,08,04,14,23,22.80
2008,08,04,14,24,22.90
2008,08,04,14,25,23.10
2008,08,04,14,26,23.20
2008,08,04,14,27,23.20
2008,08,04,14,28,23.20
2008,08,04,14,29,23.20
2008,08,04,14,30,23.20
2008,08,04,14,31,23.20
2008,08,04,14,32,23.20
2008,08,04,14,33,23.20
2008,08,04,14,34,23.20
2008,08,04,14,35,23.20
2008,08,04,14,36,23.20
2008,08,04,14,37,23.30
2008,08,04,14,38,23.30
2008,08,04,14,39,23.30
2008,08,04,14,40,23.30
2008,08,04,14,41,23.30
2008,08,04,14,42,23.40
2008,08,04,14,43,23.40
2008,08,04,14,44,23.50
2008,08,04,14,45,23.60
2008,08,04,14,46,23.60
2008,08,04,14,47,23.60
2008,08,04,14,48,23.60
2008,08,04,14,49,23.60
2008,08,04,14,50,23.70
2008,08,04,14,51,23.70
2008,08,04,14,52,23.90
2008,08,04,14,53,24.00
2008,08,04,14,54,24.10
2008,08,04,14,55,24.20
2008,08,04,14,56,24.30
2008,08,04,14,57,24.30
2008,08,04,14,58,24.30
2008,08,04,14,59,24.30
2008,08,04,15,00,24.30
2008,08,04,15,01,24.30
2008,08,04,15,02,24.40
2008,08,04,15,03,24.40
2008,08,04,15,04,24.40
2008,08,04,15,05,24.30
2008,08,04,15,06,24.30
2008,08,04,15,07,24.40
2008,08,04,15,08,24.40
2008,08,04,15,09,24.50
2008,08,04,15,10,24.50
2008,08,04,15,11,24.50
2008,08,04,15,12,24.60
2008,08,04,15,13,24.60
2008,08,04,15,14,24.60
2008,08,04,15,15,24.60
2008,08,04,15,16,24.60
2008,08,04,15,17,24.60
2008,08,04,15,18,24.60
2008,08,04,15,19,24.70
2008,08,04,15,20,24.70
2008,08,04,15,21,24.70
2008,08,04,15,22,24.80
2008,08,04,15,23,24.80
2008,08,04,15,24,24.80
2008,08,04,15,25,24.80
2008,08,04,15,26,24.80
2008,08,04,15,27,24.80
2008,08,04,15,28,24.80
2008,08,04,15,29,24.90
2008,08,04,15,30,24.90
2008,08,04,15,31,24.90
2008,08,04,15,32,24.90
2008,08,04,15,33,24.90
2008,08,04,15,34,25.00
2008,08,04,15,35,25.10
2008,08,04,15,36,25.10
2008,08,04,15,37,25.10
2008,08,04,15,38,25.00
2008,08,04,15,39,24.90
2008,08,04,15,40,24.90
2008,08,04,15,41,24.90
2008,08,04,15,42,24.90
2008,08,04,15,43,24.80
2008,08,04,15,44,24.80
2008,08,04,15,45,24.90
2008,08,04,15,46,24.90
2008,08,04,15,47,25.00
2008,08,04,15,48,25.00
2008,08,04,15,49,25.10
2008,08,04,15,50,25.10
2008,08,04,15,51,25.00
2008,08,04,15,52,25.00
2008,08,04,15,53,25.00
2008,08,04,15,54,25.00
2008,08,04,15,55,25.00
2008,08,04,15,56,25.00
2008,08,04,15,57,25.00
2008,08,04,15,58,25.00
2008,08,04,15,59,25.10
2008,08,04,16,00,25.10
2008,08,04,16,01,25.10
2008,08,04,16,02,25.20
2008,08,04,16,03,25.30
2008,08,04,16,04,25.30
2008,08,04,16,05,25.40
2008,08,04,16,06,25.40
2008,08,04,16,07,25.30
2008,08,04,16,08,25.20
2008,08,04,16,09,25.20
2008,08,04,16,10,25.20
2008,08,04,16,11,25.30
2008,08,04,16,12,25.30
2008,08,04,16,13,25.20
2008,08,04,16,14,25.20
2008,08,04,16,15,25.20
2008,08,04,16,16,25.20
2008,08,04,16,17,25.20
2008,08,04,16,18,25.20
2008,08,04,16,19,25.20
2008,08,04,16,20,25.20
2008,08,04,16,21,25.20
2008,08,04,16,22,25.20
2008,08,04,16,23,25.20
2008,08,04,16,24,25.30
2008,08,04,16,25,25.40
2008,08,04,16,26,25.50
2008,08,04,16,27,25.40
2008,08,04,16,28,25.40
2008,08,04,16,29,25.40
2008,08,04,16,30,25.40
2008,08,04,16,31,25.40
2008,08,04,16,32,25.40
2008,08,04,16,33,25.40
2008,08,04,16,34,25.40
2008,08,04,16,35,25.40
2008,08,04,16,36,25.40
2008,08,04,16,37,25.30
2008,08,04,16,38,25.40
2008,08,04,16,39,25.40
2008,08,04,16,40,25.50
2008,08,04,16,41,25.60
2008,08,04,16,42,25.60
2008,08,04,16,43,25.60
2008,08,04,16,44,25.60
2008,08,04,16,45,25.70
2008,08,04,16,46,25.70
2008,08,04,16,47,25.60
2008,08,04,16,48,25.70
2008,08,04,16,49,25.70
2008,08,04,16,50,25.70
2008,08,04,16,51,25.80
2008,08,04,16,52,25.80
2008,08,04,16,53,25.80
2008,08,04,16,54,25.80
2008,08,04,16,55,25.80
2008,08,04,16,56,25.70
2008,08,04,16,57,25.80
2008,08,04,16,58,25.80
2008,08,04,16,59,25.90
2008,08,04,17,00,25.90
2008,08,04,17,01,25.90
2008,08,04,17,02,26.00
2008,08,04,17,03,26.10
2008,08,04,17,04,26.10
2008,08,04,17,05,26.10
2008,08,04,17,06,26.10
2008,08,04,17,07,26.10
2008,08,04,17,08,26.10
2008,08,04,17,09,26.10
2008,08,04,17,10,26.10
2008,08,04,17,11,26.10
2008,08,04,17,12,26.20
2008,08,04,17,13,26.30
2008,08,04,17,14,26.30
2008,08,04,17,15,26.30
2008,08,04,17,16,26.30
2008,08,04,17,17,26.20
2008,08,04,17,18,26.20
2008,08,04,17,19,26.20